[[{"header":{"parameterUnit":"m.s-1","parameterCategory":1,"la1":30.2991,"la2":30.254,"lo1":-89.0895,"lo2":-89.0444,"dy":0.0017,"dx":0.0017,"nx":28,"ny":28,"refTime":"2023-09-03T21:00:00:Z","depth":0,"parameterNumber":2,"parameterNumberName":"U-component_of_WINDS"},"data":[0,0,0,0,0,0,0,0,0,0,0,0,0,0,0,0,0,0,0,0,0,0,0,0,0,0,0,0,0,0,0,0,0,0,0,0,0,0,0,0,0,0,0,0,0,0,0,0,0,0,0,0,0,0,0,0,0,0,-4.2139,-4.2139,0,-4.2129,-4.2129,-4.2129,-4.2008,-4.2005,-4.2002,-4.1999,-4.1991,-4.1994,-4.1996,0,0,0,0,0,0,0,0,0,0,0,0,0,-4.2058,-4.206,-4.2139,-4.2139,-4.2139,-4.2129,-4.2129,-4.2129,-4.2009,-4.2005,-4.2001,-4.1998,-4.199,-4.1993,-4.1997,0,0,0,0,0,0,0,0,0,0,0,0,0,-4.2075,-4.2061,-4.2139,-4.2078,-4.2072,-4.2129,-4.2129,-4.2129,-4.2009,-4.2005,-4.2,-4.1996,-4.1989,-4.1993,-4.1997,-4.2113,0,0,-4.2009,-4.2011,0,0,0,0,0,0,0,0,-4.2075,-4.2078,-4.2087,-4.2082,-4.2076,-4.2065,-4.2097,-4.2123,-4.2011,-4.2033,-4.1999,-4.1994,-4.202,-4.2021,-4.2029,-4.2112,-4.2112,-4.2009,-4.2012,-4.2013,-4.2015,0,0,0,0,0,0,0,-4.2073,-4.2078,-4.2135,-4.2087,-4.208,-4.2052,-4.2049,-4.2102,-4.2052,-4.2031,-4.2022,-4.2022,-4.2016,-4.2025,-4.2028,-4.2112,-4.2009,-4.2013,-4.2015,-4.2017,-4.2292,-4.2297,0,0,0,0,0,0,-4.208,-4.2078,-4.2135,-4.2135,-4.2064,-4.2057,-4.2054,-4.2073,-4.2051,-4.2044,-4.2026,-4.2017,-4.2021,-4.2023,-4.2027,-4.2162,-4.2013,-4.2017,-4.2019,-4.2287,-4.2293,-4.2298,0,0,0,0,0,0,-4.2079,-4.2087,-4.2136,-4.2104,-4.2108,-4.2063,-4.2086,-4.2075,-4.2085,-4.2048,-4.2039,-4.2045,-4.2017,-4.2022,-4.2093,-4.216,-4.2019,-4.2022,-4.2281,-4.2289,-4.2296,-4.2433,0,0,0,0,0,0,-4.2077,-4.2087,-4.2129,-4.2106,-4.211,-4.2201,-4.209,-4.2078,-4.2092,-4.2079,-4.2063,-4.2056,-4.2014,-4.2087,-4.2097,-4.2163,-4.2026,-4.2275,-4.2285,-4.2293,-4.2423,-4.2445,-4.2463,0,0,0,0,0,-4.2075,-4.2169,-4.2132,-4.214,-4.2162,-4.2205,-4.2207,-4.2157,-4.2098,-4.2141,-4.2117,-4.2056,-4.2152,-4.2096,-4.2105,-4.2174,-4.227,-4.2282,-4.2293,-4.2413,-4.244,-4.2463,0,0,0,0,0,0,-4.2202,-4.2164,-4.2123,-4.2212,-4.2213,-4.2184,-4.2237,-4.2186,-4.2204,-4.2192,-4.2129,-4.2126,-4.2208,-4.2197,-4.2136,-4.2286,-4.22,-4.2214,-4.2289,-4.2314,-4.2334,-4.2335,-4.2029,0,0,0,0,0,-4.224,-4.2276,-4.2242,-4.2324,-4.2326,-4.2282,-4.2299,-4.226,-4.2258,-4.2258,-4.2239,-4.2241,-4.2271,-4.2292,-4.2317,-4.2421,-4.2416,-4.2473,-4.2493,-4.251,-4.2523,-4.2579,-4.2604,-4.2335,-4.2335,-4.2335,0,0,-4.2319,-4.2303,-4.233,-4.2349,-4.2345,-4.2386,-4.2283,-4.233,-4.236,-4.2265,-4.2331,-4.2318,-4.2315,-4.2404,-4.2441,-4.2398,-4.2596,-4.2524,-4.2538,-4.2541,-4.2593,-4.2618,-4.2641,-4.2342,-4.2341,-4.234,0,0,-4.2485,-4.2476,-4.2544,-4.2542,-4.2537,-4.2507,-4.2524,-4.2504,-4.2491,-4.2556,-4.2486,-4.2522,-4.2575,-4.2576,-4.2584,-4.2754,-4.2699,-4.2764,-4.2871,-4.2926,-4.2947,-4.2965,-4.3027,-4.305,-4.2776,-4.2777,-4.2777,0,-4.2584,-4.2642,-4.2585,-4.2637,-4.2649,-4.2564,-4.2634,-4.2635,-4.2639,-4.2649,-4.26,-4.2666,-4.2658,-4.2747,-4.2788,-4.2797,-4.2815,-4.2765,-4.2948,-4.2966,-4.2983,-4.3041,-4.3064,-4.2785,-4.2784,-4.2783,-4.2782,0,-4.2765,-4.2806,-4.2862,-4.2868,-4.2885,-4.2946,-4.29,-4.2925,-4.2885,-4.2862,-4.293,-4.2918,-4.2941,-4.2959,-4.2921,-4.3043,-4.3016,-4.2959,-4.2872,-4.3017,-4.3071,-4.3093,-4.2796,-4.2793,-4.2791,-4.2789,0,0,-4.3009,-4.2984,-4.3006,-4.3008,-4.2997,-4.3029,-4.3087,-4.3108,-4.3132,-4.3138,-4.3186,-4.3234,-4.3181,-4.319,-4.3151,-4.32,-4.3337,-4.3136,-4.3136,-4.3175,-4.3473,-4.3517,-4.3544,-4.3301,-4.3305,-4.3308,-4.3474,0,-4.3169,-4.3265,-4.3217,-4.332,-4.3359,-4.3281,-4.3331,-4.3331,-4.3311,-4.3342,-4.332,-4.3355,-4.3282,-4.3288,-4.3332,-4.3311,-4.3396,-4.3298,-4.3346,-4.3349,-4.335,-4.3571,-4.3617,-4.3774,-4.3494,-4.3498,-4.35,0,-4.3368,-4.3384,-4.3491,-4.3474,-4.3489,-4.3535,-4.3552,-4.3582,-4.3581,-4.3564,-4.3575,-4.3526,-4.3583,-4.3497,-4.3576,-4.3511,-4.3528,-4.3521,-4.3526,-4.3529,-4.3434,-4.3581,-4.3823,-4.3847,-4.3533,-4.353,-4.3528,0,-4.3537,-4.3584,-4.3654,-4.3659,-4.3642,-4.3677,-4.3671,-4.3666,-4.3683,-4.3698,-4.3709,-4.3731,-4.3744,-4.3763,-4.3722,-4.3663,-4.3808,-4.3718,-4.3796,-4.3798,-4.383,-4.3829,-4.4079,-4.3841,-4.384,-4.384,-4.3839,0,-4.3722,-4.379,-4.373,-4.3774,-4.3849,-4.3794,-4.3871,-4.3857,-4.3854,-4.3894,-4.3828,-4.3868,-4.3811,-4.3846,-4.3814,-4.3885,-4.3891,-4.388,-4.3871,-4.3886,-4.3888,-4.3897,-4.3885,-4.3846,-4.3845,-4.3843,-4.3842,0,-4.3923,-4.3885,-4.3957,-4.3935,-4.3931,-4.3988,-4.397,-4.401,-4.3986,-4.4039,-4.4048,-4.4011,-4.4048,-4.4009,-4.4044,-4.4023,-4.412,-4.4094,-4.412,-4.4113,-4.4194,-4.4187,-4.4459,-4.4493,-4.4232,-4.4235,-4.4237,0,-4.4043,-4.4094,-4.4078,-4.4101,-4.4099,-4.4136,-4.4153,-4.4102,-4.4123,-4.4127,-4.4168,-4.42,-4.4222,-4.4287,-4.4264,-4.4291,-4.4266,-4.436,-4.427,-4.4284,-4.4269,-4.4267,-4.4273,-4.4378,-4.4381,-4.4384,-4.4386,0,-4.4261,-4.424,-4.4267,-4.4289,-4.4311,-4.4326,-4.4335,-4.4357,-4.4305,-4.4332,-4.437,-4.4388,-4.4424,-4.4457,-4.4478,-4.4474,-4.4423,-4.4414,-4.4434,-4.4451,-4.4464,-4.4459,-4.4171,-4.4408,-4.4406,-4.4404,-4.4403,-4.4402,-4.4425,-4.4468,-4.4464,-4.4497,-4.4499,-4.451,-4.4547,-4.4529,-4.4559,-4.4584,-4.4552,-4.46,-4.46,-4.4622,-4.4624,-4.4662,-4.4622,-4.465,-4.4658,-4.4666,-4.4678,-4.4458,-4.4665,-4.4664,-4.4664,-4.4663,-4.4663,0,-4.4641,-4.4635,-4.4666,-4.4682,-4.4709,-4.4657,-4.4666,-4.4692,-4.4734,-4.4738,-4.4762,-4.4807,-4.484,-4.482,-4.4848,-4.4882,-4.486,-4.4892,-4.4889,-4.4889,-4.4711,-4.4692,-4.491,-4.491,-4.491,-4.491,-4.4909,-4.4909,-4.4756,-4.4826,-4.4806,-4.4877,-4.487,-4.4916,-4.4925,-4.4936,-4.4939,-4.4992,-4.5019,-4.5006,-4.5001,-4.5029,-4.5058,-4.5051,-4.5065,-4.5106,-4.5092,-4.4926,-4.4901,-4.4878,-4.486,-4.5109,-4.511,-4.5266,-4.5268,-4.5269]},{"header":{"parameterUnit":"m.s-1","parameterCategory":1,"la1":30.2991,"la2":30.254,"lo1":-89.0895,"lo2":-89.0444,"dy":0.0017,"dx":0.0017,"nx":28,"ny":28,"refTime":"2023-09-03T21:00:00:Z","depth":0,"parameterNumber":3,"parameterNumberName":"V-component_of_WINDS"},"data":[0,0,0,0,0,0,0,0,0,0,0,0,0,0,0,0,0,0,0,0,0,0,0,0,0,0,0,0,0,0,0,0,0,0,0,0,0,0,0,0,0,0,0,0,0,0,0,0,0,0,0,0,0,0,0,0,0,0,1.7755,1.7755,0,1.7757,1.7757,1.7757,1.7807,1.7808,1.781,1.7811,1.7807,1.7806,1.7804,0,0,0,0,0,0,0,0,0,0,0,0,0,1.7788,1.7787,1.7755,1.7755,1.7755,1.7757,1.7757,1.7757,1.7807,1.7808,1.781,1.7811,1.7807,1.7806,1.7804,0,0,0,0,0,0,0,0,0,0,0,0,0,1.778,1.7786,1.7755,1.778,1.7782,1.7757,1.7757,1.7757,1.7806,1.7808,1.781,1.7812,1.7808,1.7806,1.7804,1.7753,0,0,1.7798,1.7797,0,0,0,0,0,0,0,0,1.778,1.7778,1.7776,1.7778,1.7781,1.7784,1.7768,1.7756,1.7806,1.7797,1.7811,1.7813,1.7797,1.7796,1.7792,1.7753,1.7753,1.7798,1.7797,1.7796,1.7795,0,0,0,0,0,0,0,1.7781,1.7779,1.7755,1.7776,1.7779,1.7789,1.779,1.7765,1.7786,1.7798,1.7802,1.7802,1.7799,1.7794,1.7793,1.7753,1.7798,1.7796,1.7795,1.7794,1.7671,1.7669,0,0,0,0,0,0,1.7778,1.7779,1.7755,1.7756,1.7785,1.7787,1.7788,1.7781,1.7786,1.7789,1.78,1.7804,1.7796,1.7795,1.7793,1.7732,1.7796,1.7794,1.7793,1.7673,1.767,1.7668,0,0,0,0,0,0,1.7779,1.7776,1.7755,1.7768,1.7766,1.7785,1.7776,1.778,1.7775,1.7788,1.7791,1.7792,1.7798,1.7795,1.7763,1.7733,1.7793,1.7791,1.7675,1.7672,1.7669,1.7611,0,0,0,0,0,0,1.778,1.7776,1.7758,1.7768,1.7766,1.7727,1.7774,1.7778,1.7772,1.7778,1.7781,1.7783,1.7799,1.7766,1.7761,1.7731,1.779,1.7678,1.7674,1.767,1.7616,1.7607,1.7599,0,0,0,0,0,1.7781,1.774,1.7756,1.7753,1.7744,1.7725,1.7724,1.7744,1.777,1.7751,1.7759,1.7783,1.7738,1.7762,1.7757,1.7726,1.768,1.7675,1.7671,1.762,1.7608,1.7599,0,0,0,0,0,0,1.7723,1.7742,1.776,1.7722,1.7722,1.7733,1.771,1.7732,1.7723,1.7728,1.7752,1.7753,1.7716,1.7718,1.7745,1.7677,1.7713,1.7707,1.7676,1.7665,1.7657,1.7655,1.7788,0,0,0,0,0,1.7707,1.7692,1.7708,1.7672,1.7672,1.7691,1.7684,1.77,1.77,1.77,1.7706,1.7703,1.7688,1.7678,1.7665,1.7618,1.7618,1.7594,1.7586,1.7579,1.7572,1.7546,1.7535,1.7653,1.7653,1.7653,0,0,1.7671,1.7679,1.7668,1.7661,1.7663,1.7645,1.769,1.767,1.7656,1.7696,1.7665,1.767,1.7669,1.7629,1.7611,1.7629,1.754,1.7573,1.7567,1.7564,1.754,1.7529,1.7519,1.7649,1.765,1.7651,0,0,1.7596,1.7602,1.7573,1.7575,1.7578,1.7591,1.7584,1.7593,1.7598,1.7569,1.7599,1.7583,1.7557,1.7554,1.755,1.7477,1.7498,1.7472,1.7425,1.74,1.739,1.7382,1.7354,1.7344,1.7466,1.7466,1.7466,0,1.755,1.7527,1.7554,1.7532,1.7527,1.7566,1.7535,1.7535,1.7533,1.7528,1.755,1.7519,1.7521,1.748,1.7462,1.7458,1.7449,1.747,1.739,1.7382,1.7375,1.7348,1.7338,1.7463,1.7463,1.7463,1.7464,0,1.7469,1.7453,1.7428,1.7428,1.7421,1.7394,1.7416,1.7406,1.7424,1.7434,1.7404,1.7408,1.7396,1.7389,1.7405,1.735,1.7361,1.7386,1.7422,1.736,1.7335,1.7325,1.7458,1.7459,1.746,1.7461,0,0,1.7355,1.7372,1.7362,1.7362,1.737,1.7357,1.7332,1.7323,1.7313,1.7311,1.7289,1.7268,1.7291,1.7286,1.7303,1.7281,1.7221,1.7308,1.7309,1.729,1.7158,1.7137,1.7125,1.7236,1.7235,1.7233,1.7157,0,1.7281,1.7241,1.7266,1.7221,1.7204,1.7242,1.7221,1.7222,1.7232,1.7218,1.7229,1.7212,1.7246,1.7243,1.7223,1.7232,1.7194,1.7238,1.7213,1.7212,1.7209,1.7112,1.709,1.7018,1.7148,1.7146,1.7145,0,1.7188,1.7185,1.7138,1.715,1.7144,1.7124,1.7118,1.7106,1.7108,1.7117,1.7112,1.7135,1.7109,1.7148,1.7113,1.7142,1.7134,1.7137,1.7135,1.713,1.7172,1.7102,1.6995,1.6983,1.7131,1.7132,1.7133,0,1.7106,1.709,1.706,1.706,1.7073,1.7058,1.7062,1.7067,1.706,1.7054,1.705,1.7041,1.7035,1.7027,1.7046,1.7073,1.7007,1.7047,1.7011,1.701,1.6992,1.6992,1.6879,1.6992,1.6992,1.6992,1.6992,0,1.7019,1.6988,1.7023,1.7004,1.6972,1.7001,1.6967,1.6975,1.6979,1.6961,1.6994,1.6976,1.7004,1.6989,1.7004,1.6971,1.6969,1.6973,1.6976,1.6968,1.6967,1.696,1.6964,1.6989,1.699,1.6991,1.6991,0,1.6919,1.6942,1.6912,1.6928,1.6932,1.6906,1.6919,1.6901,1.6915,1.6892,1.6889,1.6909,1.6893,1.6912,1.6897,1.6907,1.6862,1.6874,1.6861,1.6863,1.6824,1.6827,1.67,1.6684,1.681,1.6809,1.6808,0,1.686,1.6838,1.6853,1.6845,1.6848,1.6834,1.6828,1.6856,1.6848,1.685,1.6832,1.6819,1.681,1.6782,1.6794,1.6782,1.6793,1.675,1.6791,1.6783,1.6789,1.6788,1.6785,1.674,1.6738,1.6737,1.6736,0,1.6752,1.6765,1.6756,1.6752,1.6744,1.6741,1.674,1.6731,1.6761,1.675,1.6735,1.6728,1.6715,1.67,1.6693,1.6695,1.6719,1.6724,1.6714,1.6703,1.6695,1.6696,1.6834,1.6725,1.6726,1.6727,1.6728,1.6728,1.6669,1.6651,1.6659,1.6648,1.6651,1.665,1.6634,1.6648,1.6636,1.6628,1.6646,1.6626,1.663,1.6622,1.6623,1.6606,1.6624,1.6611,1.6607,1.6602,1.6595,1.6701,1.6605,1.6606,1.6606,1.6606,1.6606,0,1.6561,1.6568,1.6558,1.6557,1.6548,1.6577,1.6577,1.6567,1.655,1.6552,1.6544,1.6526,1.6513,1.6526,1.6515,1.6499,1.651,1.6495,1.6494,1.6494,1.6581,1.6589,1.6487,1.6487,1.6487,1.6487,1.6487,1.6487,1.6503,1.6473,1.6487,1.6459,1.6467,1.645,1.6448,1.6446,1.6448,1.6428,1.6418,1.6428,1.6434,1.6424,1.6413,1.6417,1.6409,1.639,1.6397,1.6477,1.6488,1.6499,1.6507,1.6389,1.6389,1.6312,1.6311,1.631]}]]